period_start,C,m1,H,J0,J1,J2,J3,J4,J5,JA,JB,JC,JD,JJ,JK,JN,#
2016-03-14 00:03:14,0.18,5.26,0.00,12.64,16.99,21.39,15.33,50.53,1026.60,2069.99,1940.59,2065.75,2350.30,600.26,623.93,34.81,0000 0000 0000 0000 000000
2016-03-14 00:08:16,0.20,5.27,0.00,12.67,16.99,21.42,15.37,50.64,1026.75,2069.99,1938.49,2064.09,2348.40,599.97,623.69,34.86,0000 0000 0000 0000 000000
2016-03-14 00:13:17,0.19,5.28,0.00,12.68,16.99,21.41,15.35,50.54,1026.71,2069.99,1936.51,2062.70,2346.78,600.02,623.77,34.92,0000 0000 0000 0000 000000
2016-03-14 00:18:18,0.13,5.29,0.00,12.68,17.00,21.42,15.29,50.38,1026.66,2069.99,1935.11,2061.60,2345.48,599.57,623.21,34.97,0000 0000 0000 0000 000000
2016-03-14 00:23:20,0.07,5.29,0.00,12.70,17.02,21.44,15.34,50.50,1026.69,2069.99,1934.09,2060.94,2344.61,600.15,623.73,35.02,0000 0000 0000 0000 000000
2016-03-14 00:28:21,0.09,5.30,0.00,12.70,17.02,21.44,15.31,50.58,1026.52,2069.99,1933.28,2060.11,2343.94,600.01,623.43,35.07,0000 0000 0000 0000 000000
2016-03-14 00:33:22,0.09,5.30,0.00,12.72,17.02,21.50,15.37,50.57,1026.40,2069.98,1932.52,2059.61,2343.11,599.74,623.14,35.12,0000 0000 0000 0000 000000
2016-03-14 00:38:23,0.07,5.30,0.00,12.72,17.02,21.47,15.29,50.51,1026.40,2069.99,1931.70,2058.98,2342.39,599.82,623.13,35.17,0000 0000 0000 0000 000000
2016-03-14 00:43:25,0.14,5.31,0.00,12.73,17.04,21.45,15.39,50.58,1026.40,2069.98,1930.35,2058.00,2341.47,600.23,623.70,35.22,0000 0000 0000 0000 000000
2016-03-14 00:48:26,0.18,5.32,0.00,12.75,17.04,21.49,15.30,50.42,1026.40,2069.99,1928.47,2056.75,2339.92,600.22,623.66,35.27,0000 0000 0000 0000 000000
2016-03-14 00:53:27,0.17,5.33,0.00,12.77,17.04,21.49,15.34,50.61,1026.41,2069.99,1926.77,2055.53,2338.58,599.94,623.31,35.32,0000 0000 0000 0000 000000
2016-03-14 00:58:29,0.21,5.34,0.00,12.76,17.04,21.48,15.36,50.58,1026.38,2069.96,1924.69,2054.03,2336.95,599.93,623.25,35.37,0000 0000 0000 0000 000000
2016-03-14 01:03:30,0.23,5.35,0.00,12.79,17.05,21.54,15.31,50.48,1026.38,2069.97,1922.26,2052.29,2334.94,599.99,623.20,35.42,0000 0000 0000 0000 000000
2016-03-14 01:08:31,0.16,5.36,0.00,12.81,17.07,21.60,15.26,50.56,1026.38,2069.98,1920.52,2050.92,2333.39,599.77,622.91,35.47,0000 0000 0000 0000 000000
2016-03-14 01:13:33,0.10,5.37,0.00,12.83,17.07,21.54,15.36,50.63,1026.38,2069.99,1919.56,2050.01,2332.27,600.25,623.44,35.52,0000 0000 0000 0000 000000
2016-03-14 01:18:34,0.11,5.37,0.00,12.84,17.08,21.56,15.28,50.62,1026.38,2069.98,1918.36,2049.12,2331.29,599.68,622.90,35.57,0000 0000 0000 0000 000000
2016-03-14 01:23:35,0.11,5.38,0.00,12.86,17.09,21.55,15.35,50.57,1026.38,2069.96,1917.30,2048.30,2330.40,599.91,623.08,35.62,0000 0000 0000 0000 000000
2016-03-14 01:28:37,0.10,5.38,0.00,12.88,17.11,21.58,15.33,50.64,1026.39,2069.91,1916.25,2047.49,2329.56,599.89,622.95,35.67,0000 0000 0000 0000 000000
2016-03-14 01:33:38,0.07,5.39,0.00,12.90,17.12,21.60,15.25,50.59,1026.39,2069.81,1915.06,2046.87,2328.54,599.80,622.79,35.72,0000 0000 0000 0000 000000
2016-03-14 01:38:40,0.13,5.39,0.00,12.94,17.14,21.63,15.31,50.72,1026.38,2069.65,1913.63,2045.90,2327.40,599.62,622.54,35.78,0000 0000 0000 0000 000000
2016-03-14 01:43:41,0.11,5.40,0.00,12.95,17.16,21.63,15.30,50.64,1026.39,2069.64,1912.40,2044.90,2326.29,600.04,622.97,35.83,0000 0000 0000 0000 000000
2016-03-14 01:48:42,0.08,5.40,0.00,13.00,17.18,21.66,15.35,50.75,1026.39,2069.30,1911.12,2043.88,2325.09,600.26,623.11,35.88,0000 0000 0000 0000 000000
2016-03-14 01:53:44,0.13,5.41,0.00,13.03,17.21,21.70,15.32,50.85,1026.39,2069.13,1909.82,2042.87,2323.90,599.88,622.52,35.93,0000 0000 0000 0000 000000
2016-03-14 01:58:45,0.14,5.42,0.00,13.07,17.23,21.71,15.34,50.76,1026.38,2069.05,1908.54,2041.80,2322.70,600.12,622.74,35.98,0000 0000 0000 0000 000000
2016-03-14 02:03:46,0.14,5.42,0.00,13.09,17.26,21.75,15.25,50.79,1026.38,2069.01,1907.05,2040.66,2321.49,599.98,622.56,36.03,0000 0000 0000 0000 000000
2016-03-14 02:08:47,0.16,5.43,0.00,13.13,17.28,21.80,15.39,50.88,1026.38,2069.00,1905.45,2039.51,2320.10,600.36,622.88,36.08,0000 0000 0000 0000 000000
2016-03-14 02:13:49,0.16,5.44,0.00,13.14,17.31,21.80,15.31,50.74,1026.37,2069.00,1903.85,2038.23,2318.68,599.81,622.27,36.13,0000 0000 0000 0000 000000
2016-03-14 02:18:50,0.18,5.45,0.00,13.18,17.32,21.79,15.22,50.77,1026.36,2069.00,1902.05,2036.94,2317.29,600.37,622.83,36.18,0000 0000 0000 0000 000000
2016-03-14 02:23:51,0.20,5.46,0.00,13.20,17.34,21.83,15.29,50.73,1026.38,2068.99,1900.11,2035.56,2315.69,600.21,622.51,36.23,0000 0000 0000 0000 000000
2016-03-14 02:28:52,0.15,5.47,0.00,13.24,17.35,21.84,15.34,50.84,1026.38,2068.98,1898.44,2034.36,2314.41,600.42,622.63,36.28,0000 0000 0000 0000 000000
2016-03-14 02:33:54,0.15,5.48,0.00,13.28,17.37,21.83,15.30,50.92,1026.36,2068.98,1896.89,2033.19,2313.00,600.14,622.30,36.33,0000 0000 0000 0000 000000
2016-03-14 02:38:55,0.16,5.48,0.00,13.30,17.39,21.87,15.30,50.84,1026.36,2068.98,1895.38,2031.95,2311.59,600.26,622.64,36.38,0000 0000 0000 0000 000000
2016-03-14 02:43:56,0.10,5.49,0.00,13.35,17.41,21.88,15.24,50.69,1026.33,2068.80,1894.06,2030.87,2310.33,599.88,621.93,36.43,0000 0000 0000 0000 000000
2016-03-14 02:48:57,0.09,5.50,0.00,13.38,17.43,21.89,15.23,50.72,1026.29,2068.44,1892.70,2029.87,2309.24,600.05,622.01,36.48,0000 0000 0000 0000 000000
2016-03-14 02:53:59,0.10,5.50,0.00,13.42,17.46,21.95,15.27,50.63,1026.22,2068.12,1891.50,2028.94,2308.15,599.78,621.51,36.53,0000 0000 0000 0000 000000
2016-03-14 02:59:00,0.10,5.50,0.00,13.45,17.49,21.98,15.22,50.62,1026.18,2068.04,1890.48,2028.08,2307.20,599.79,621.45,36.58,0000 0000 0000 0000 000000
2016-03-14 03:04:02,0.11,5.51,0.00,13.48,17.52,22.00,15.19,50.62,1026.19,2068.01,1889.50,2027.20,2306.24,599.99,621.66,36.63,0000 0000 0000 0000 000000
2016-03-14 03:09:03,0.08,5.51,0.00,13.52,17.55,22.06,15.28,50.69,1026.23,2068.01,1888.77,2026.66,2305.45,600.21,621.83,36.69,0000 0000 0000 0000 000000
2016-03-14 03:14:04,0.06,5.52,0.00,13.57,17.58,22.05,15.31,50.80,1026.36,2068.00,1887.95,2025.97,2304.73,599.94,621.38,36.74,0000 0000 0000 0000 000000
2016-03-14 03:19:06,0.11,5.52,0.00,13.62,17.61,22.11,15.27,50.79,1026.37,2068.00,1886.98,2025.12,2303.88,599.90,621.35,36.79,0000 0000 0000 0000 000000
2016-03-14 03:24:07,0.10,5.53,0.00,13.65,17.64,22.13,15.23,50.77,1026.37,2067.98,1886.01,2024.33,2303.01,599.69,621.05,36.84,0000 0000 0000 0000 000000
2016-03-14 03:29:08,0.08,5.53,0.00,13.67,17.68,22.14,15.30,50.86,1026.31,2067.95,1885.10,2023.69,2302.10,600.20,621.70,36.89,0000 0000 0000 0000 000000
2016-03-14 03:34:10,0.05,5.54,0.00,13.72,17.71,22.20,15.26,50.73,1026.31,2067.66,1884.17,2022.89,2301.21,599.90,621.14,36.94,0000 0000 0000 0000 000000
2016-03-14 03:39:11,0.06,5.54,0.00,13.77,17.75,22.24,15.27,50.77,1026.35,2067.25,1883.23,2022.05,2300.29,600.17,621.23,36.99,0000 0000 0000 0000 000000
2016-03-14 03:44:12,0.10,5.54,0.00,13.82,17.79,22.30,15.24,50.81,1026.33,2067.03,1882.25,2021.18,2299.43,599.85,620.92,37.04,0000 0000 0000 0000 000000
2016-03-14 03:49:14,0.11,5.55,0.00,13.87,17.83,22.28,15.22,50.80,1026.36,2067.00,1881.39,2020.46,2298.49,600.05,620.97,37.09,0000 0000 0000 0000 000000
2016-03-14 03:54:15,0.11,5.55,0.00,13.90,17.87,22.35,15.17,50.70,1026.34,2067.00,1880.37,2019.64,2297.55,599.81,620.71,37.14,0000 0000 0000 0000 000000
2016-03-14 03:59:16,0.16,5.56,0.00,13.95,17.91,22.37,15.31,50.78,1026.28,2066.99,1878.78,2018.47,2296.28,599.96,620.62,37.19,0000 0000 0000 0000 000000
2016-03-14 04:04:17,0.14,5.57,0.00,14.00,17.95,22.43,15.26,50.78,1026.30,2066.98,1877.25,2017.26,2295.02,600.31,620.89,37.24,0000 0000 0000 0000 000000
2016-03-14 04:09:18,0.08,5.58,0.00,14.05,17.99,22.43,15.35,50.85,1026.27,2066.81,1876.42,2016.48,2293.98,600.51,620.88,37.29,0000 0000 0000 0000 000000
2016-03-14 04:14:20,0.03,5.58,0.00,14.10,18.03,22.48,15.13,50.67,1026.26,2066.22,1875.45,2015.83,2293.04,599.80,620.22,37.34,0000 0000 0000 0000 000000
2016-03-14 04:19:21,0.10,5.58,0.00,14.16,18.08,22.61,15.28,50.78,1026.30,2066.03,1874.46,2014.84,2292.09,599.92,620.09,37.39,0000 0000 0000 0000 000000
2016-03-14 04:24:22,0.10,5.59,0.00,14.22,18.12,22.62,15.25,50.90,1026.32,2066.00,1873.49,2013.99,2291.10,600.13,620.29,37.44,0000 0000 0000 0000 000000
2016-03-14 04:29:23,0.11,5.59,0.00,14.25,18.17,22.65,15.21,50.88,1026.33,2066.00,1872.52,2013.11,2290.17,599.75,619.72,37.49,0000 0000 0000 0000 000000
2016-03-14 04:34:25,0.11,5.60,0.00,14.30,18.22,22.74,15.15,50.88,1026.33,2065.95,1871.51,2012.24,2289.18,599.87,619.95,37.54,0000 0000 0000 0000 000000
2016-03-14 04:39:26,0.05,5.60,0.00,14.36,18.27,22.72,15.28,50.93,1026.34,2065.53,1870.48,2011.42,2288.19,599.98,619.83,37.60,0000 0000 0000 0000 000000
2016-03-14 04:44:27,0.08,5.61,0.00,14.39,18.32,22.92,15.22,50.83,1026.37,2065.11,1869.43,2010.55,2287.26,600.25,620.02,37.65,0000 0000 0000 0000 000000
2016-03-14 04:49:29,0.11,5.61,0.00,14.43,18.37,22.95,15.18,50.77,1026.37,2065.00,1868.36,2009.58,2286.11,599.84,619.61,37.70,0000 0000 0000 0000 000000
2016-03-14 04:54:30,0.11,5.62,0.00,14.46,18.42,23.03,15.19,50.85,1026.38,2065.00,1867.37,2008.73,2285.11,599.86,619.50,37.75,0000 0000 0000 0000 000000
2016-03-14 04:59:31,0.10,5.62,0.00,14.51,18.47,23.04,15.28,50.98,1026.38,2064.96,1866.18,2007.86,2284.06,600.19,619.64,37.80,0000 0000 0000 0000 000000
2016-03-14 05:04:32,0.10,5.63,0.00,14.54,18.52,23.08,15.22,51.03,1026.38,2064.82,1865.07,2006.92,2283.01,599.96,619.42,37.85,0000 0000 0000 0000 000000
2016-03-14 05:09:33,0.05,5.63,0.00,14.60,18.56,23.05,15.18,50.88,1026.38,2064.25,1863.94,2005.97,2281.95,599.56,618.87,37.90,0000 0000 0000 0000 000000
2016-03-14 05:14:35,0.12,5.64,0.00,14.64,18.61,23.14,15.30,50.94,1026.38,2064.03,1862.74,2005.04,2280.91,600.16,619.46,37.95,0000 0000 0000 0000 000000
2016-03-14 05:19:36,0.11,5.64,0.00,14.68,18.65,23.17,15.19,50.84,1026.38,2064.00,1861.67,2004.19,2280.02,600.01,619.23,38.00,0000 0000 0000 0000 000000
2016-03-14 05:24:37,0.12,5.65,0.00,14.72,18.69,23.23,15.20,50.80,1026.38,2063.98,1860.63,2003.40,2279.07,600.00,619.09,38.05,0000 0000 0000 0000 000000
2016-03-14 05:29:38,0.11,5.65,0.00,14.75,18.73,23.24,15.18,50.77,1026.38,2063.95,1859.51,2002.54,2278.06,600.16,619.25,38.10,0000 0000 0000 0000 000000
2016-03-14 05:34:39,0.08,5.66,0.00,14.79,18.77,23.33,15.23,50.69,1026.38,2063.72,1858.43,2001.69,2277.02,600.15,619.19,38.15,0000 0000 0000 0000 000000
2016-03-14 05:39:40,0.04,5.66,0.00,14.82,18.81,23.30,15.23,50.73,1026.38,2063.17,1857.19,2000.81,2275.95,599.92,618.78,38.20,0000 0000 0000 0000 000000
2016-03-14 05:44:42,0.10,5.67,0.00,14.86,18.84,23.32,15.21,50.79,1026.38,2063.04,1855.99,1999.91,2274.95,599.85,618.66,38.25,0000 0000 0000 0000 000000
2016-03-14 05:49:43,0.12,5.67,0.00,14.90,18.88,23.35,15.24,50.84,1026.37,2063.00,1854.91,1999.00,2274.01,600.11,618.62,38.30,0000 0000 0000 0000 000000
2016-03-14 05:54:44,0.12,5.68,0.00,14.93,18.92,23.36,15.12,50.74,1026.37,2063.00,1853.90,1998.12,2273.05,599.85,618.55,38.35,0000 0000 0000 0000 000000
2016-03-14 05:59:46,0.20,5.69,0.00,14.98,18.95,23.40,15.18,50.67,1026.29,2063.00,1852.33,1996.93,2271.66,599.69,618.13,38.40,0000 0000 0000 0000 000000
2016-03-14 06:04:47,0.28,5.70,0.00,15.01,18.99,23.45,15.24,50.56,1026.30,2062.97,1849.77,1995.01,2269.41,600.13,618.54,38.46,0000 0000 0000 0000 000000
2016-03-14 06:09:49,0.39,5.72,0.00,15.04,19.01,23.45,15.22,50.62,1026.26,2062.77,1845.97,1992.21,2266.28,599.87,618.15,38.51,0000 0000 0000 0000 000000
2016-03-14 06:14:50,0.35,5.74,0.00,15.08,19.04,23.48,15.23,50.55,1026.32,2062.26,1842.05,1989.33,2263.10,600.13,618.40,38.56,0000 0000 0000 0000 000000
2016-03-14 06:19:52,0.27,5.75,0.00,15.11,19.07,23.51,15.13,50.79,1026.25,2062.09,1839.03,1987.06,2260.57,600.16,618.33,38.61,0000 0000 0000 0000 000000
2016-03-14 06:24:53,0.22,5.76,0.00,15.14,19.08,23.53,15.19,50.64,1026.23,2062.03,1836.72,1985.37,2258.62,600.34,618.41,38.66,0000 0000 0000 0000 000000
2016-03-14 06:29:54,0.22,5.78,0.00,15.17,19.11,23.54,15.12,50.58,1026.08,2062.01,1834.63,1983.80,2256.85,600.16,618.17,38.71,0000 0000 0000 0000 000000
2016-03-14 06:34:56,0.28,5.79,0.00,15.20,19.13,23.57,15.20,50.53,1025.94,2062.00,1832.10,1982.03,2254.68,600.16,617.88,38.76,0000 0000 0000 0000 000000
2016-03-14 06:39:57,0.34,5.81,0.00,15.25,19.14,23.55,15.18,50.34,1025.93,2062.00,1828.87,1979.66,2251.99,599.83,617.48,38.81,0000 0000 0000 0000 000000
2016-03-14 06:44:59,0.35,5.82,0.00,15.28,19.17,23.58,15.19,50.55,1025.92,2061.97,1825.68,1977.18,2249.24,600.02,617.62,38.86,0000 0000 0000 0000 000000
2016-03-14 06:50:00,0.32,5.84,0.00,15.29,19.19,23.61,15.20,50.42,1025.94,2061.89,1822.61,1974.87,2246.63,600.19,617.76,38.91,0000 0000 0000 0000 000000
2016-03-14 06:55:01,0.29,5.85,0.00,15.31,19.21,23.63,15.14,50.32,1025.92,2061.62,1819.43,1972.45,2244.01,599.93,617.37,38.96,0000 0000 0000 0000 000000
2016-03-14 07:00:02,0.29,5.87,0.00,15.34,19.23,23.64,15.20,50.16,1025.91,2061.23,1816.44,1970.18,2241.44,600.12,617.55,39.01,0000 0000 0000 0000 000000
2016-03-14 07:05:03,0.25,5.88,0.00,15.38,19.24,23.67,15.07,50.13,1025.90,2061.09,1813.73,1968.23,2239.29,600.01,617.27,39.06,0000 0000 0000 0000 000000
2016-03-14 07:10:05,0.26,5.90,0.00,15.39,19.27,23.67,15.17,50.23,1025.90,2061.07,1811.17,1966.38,2237.38,600.46,617.78,39.11,0000 0000 0000 0000 000000
2016-03-14 07:15:06,0.16,5.91,0.00,15.42,19.28,23.71,15.11,50.31,1025.90,2061.03,1809.34,1965.01,2235.87,599.31,616.58,39.16,0000 0000 0000 0000 000000
2016-03-14 07:20:07,0.13,5.92,0.00,15.44,19.31,23.72,15.15,50.35,1025.90,2061.00,1808.08,1964.06,2234.79,599.67,616.88,39.21,0000 0000 0000 0000 000000
2016-03-14 07:25:09,0.15,5.92,0.00,15.47,19.33,23.76,15.00,50.29,1025.90,2061.01,1806.79,1963.10,2233.67,599.08,616.37,39.26,0000 0000 0000 0000 000000
2016-03-14 07:30:10,0.13,5.93,0.00,15.50,19.36,23.79,15.11,50.36,1025.90,2061.00,1805.55,1962.10,2232.69,600.15,617.20,39.31,0000 0000 0000 0000 000000
2016-03-14 07:35:12,0.13,5.93,0.00,15.51,19.38,23.82,15.20,50.29,1025.90,2061.00,1804.46,1961.23,2231.63,600.07,617.14,39.36,0000 0000 0000 0000 000000
2016-03-14 07:40:13,0.13,5.94,0.00,15.53,19.41,23.82,15.15,50.33,1025.90,2061.00,1803.14,1960.31,2230.53,600.00,617.13,39.42,0000 0000 0000 0000 000000
2016-03-14 07:45:14,0.12,5.95,0.00,15.55,19.44,23.88,15.15,50.16,1025.90,2060.97,1801.88,1959.40,2229.51,599.99,616.85,39.47,0000 0000 0000 0000 000000
2016-03-14 07:50:16,0.13,5.95,0.00,15.57,19.46,23.89,15.12,50.29,1025.90,2060.97,1800.72,1958.51,2228.53,600.24,617.07,39.52,0000 0000 0000 0000 000000
2016-03-14 07:55:17,0.12,5.96,0.00,15.59,19.49,23.95,15.16,50.30,1025.90,2060.93,1799.56,1957.63,2227.50,599.95,616.84,39.57,0000 0000 0000 0000 000000
2016-03-14 08:00:18,0.10,5.97,0.00,15.61,19.51,23.96,15.16,50.38,1025.90,2060.58,1797.98,1956.49,2226.18,599.99,616.90,39.62,0000 0000 0000 0000 000000
2016-03-14 08:05:19,0.13,5.97,0.00,15.63,19.53,23.94,15.14,50.17,1025.90,2060.22,1796.58,1955.30,2224.73,600.23,616.90,39.67,0000 0000 0000 0000 000000
2016-03-14 08:10:21,0.23,5.99,0.00,15.65,19.55,23.96,15.08,50.20,1025.90,2060.08,1794.52,1953.66,2222.93,600.21,616.84,39.72,0000 0000 0000 0000 000000
2016-03-14 08:15:22,0.22,6.00,0.00,15.68,19.57,24.01,15.11,50.17,1025.90,2060.02,1792.30,1952.11,2221.11,600.24,616.97,39.77,0000 0000 0000 0000 000000
2016-03-14 08:20:23,0.24,6.01,0.00,15.69,19.58,24.02,15.20,50.08,1025.90,2060.00,1790.12,1950.44,2219.37,600.25,616.99,39.82,0000 0000 0000 0000 000000
2016-03-14 08:25:25,0.26,6.02,0.00,15.70,19.59,24.00,15.10,50.12,1025.90,2060.00,1787.79,1948.70,2217.41,599.94,616.72,39.87,0000 0000 0000 0000 000000
2016-03-14 08:30:26,0.25,6.03,0.00,15.74,19.59,24.04,15.06,50.15,1025.90,2060.00,1785.31,1946.93,2215.45,599.35,616.00,39.92,0000 0000 0000 0000 000000
2016-03-14 08:35:27,0.19,6.05,0.00,15.77,19.59,24.02,15.13,50.07,1025.90,2059.99,1783.49,1945.64,2213.91,599.98,616.50,39.97,0000 0000 0000 0000 000000
2016-03-14 08:40:29,0.17,6.05,0.00,15.82,19.60,24.03,15.11,49.98,1025.90,2059.99,1781.87,1944.51,2212.66,600.17,616.61,40.02,0000 0000 0000 0000 000000
2016-03-14 08:45:30,0.16,6.07,0.00,15.83,19.61,24.05,15.11,50.08,1025.89,2059.99,1780.32,1943.37,2211.40,600.22,616.52,40.07,0000 0000 0000 0000 000000
2016-03-14 08:50:31,0.15,6.07,0.00,15.82,19.62,24.02,15.10,50.05,1025.88,2059.97,1778.77,1942.38,2210.29,599.88,616.19,40.12,0000 0000 0000 0000 000000
2016-03-14 08:55:33,0.13,6.08,0.00,15.79,19.62,24.04,15.11,49.95,1025.87,2059.97,1777.55,1941.54,2209.35,600.21,616.63,40.17,0000 0000 0000 0000 000000
2016-03-14 09:00:34,0.10,6.08,0.00,15.77,19.62,24.09,15.13,50.04,1025.89,2059.97,1776.38,1940.81,2208.47,600.06,616.42,40.22,0000 0000 0000 0000 000000
2016-03-14 09:05:35,0.10,6.09,0.00,15.76,19.63,24.08,15.07,49.92,1025.89,2059.97,1775.45,1940.02,2207.67,600.23,616.75,40.28,0000 0000 0000 0000 000000
2016-03-14 09:10:37,0.10,6.10,0.00,15.74,19.64,24.10,15.19,50.11,1025.89,2059.96,1774.48,1939.29,2206.92,600.24,616.84,40.33,0000 0000 0000 0000 000000
2016-03-14 09:15:38,0.06,6.10,0.00,15.74,19.64,24.15,15.09,50.02,1025.89,2059.96,1773.62,1938.93,2206.09,600.33,616.87,40.38,0000 0000 0000 0000 000000
2016-03-14 09:20:39,0.09,6.11,0.00,15.72,19.64,24.12,15.15,50.02,1025.89,2059.97,1772.97,1938.13,2205.48,600.42,616.94,40.43,0000 0000 0000 0000 000000
2016-03-14 09:25:40,0.11,6.11,0.00,15.73,19.64,24.12,15.13,49.94,1025.89,2059.97,1772.06,1937.53,2204.65,600.05,616.66,40.48,0000 0000 0000 0000 000000
2016-03-14 09:30:42,0.07,6.12,0.00,15.73,19.66,24.12,15.06,49.83,1025.89,2059.95,1771.06,1936.89,2203.89,599.87,616.44,40.53,0000 0000 0000 0000 000000
2016-03-14 09:35:43,0.12,6.12,0.00,15.70,19.67,24.13,15.13,49.96,1025.89,2059.96,1770.08,1936.08,2203.06,599.83,616.49,40.58,0000 0000 0000 0000 000000
2016-03-14 09:40:44,0.11,6.13,0.00,15.69,19.67,24.15,15.09,50.02,1025.89,2059.92,1769.17,1935.46,2202.24,599.87,616.52,40.63,0000 0000 0000 0000 000000
2016-03-14 09:45:46,0.09,6.13,0.00,15.69,19.67,24.12,15.16,50.02,1025.89,2059.85,1768.19,1934.80,2201.41,600.11,616.72,40.68,0000 0000 0000 0000 000000
2016-03-14 09:50:47,0.09,6.14,0.00,15.68,19.69,24.15,15.10,49.95,1025.89,2059.82,1767.28,1934.04,2200.72,599.70,616.40,40.73,0000 0000 0000 0000 000000
2016-03-14 09:55:48,0.09,6.14,0.00,15.67,19.69,24.15,15.20,50.05,1025.89,2059.78,1766.44,1933.39,2199.99,600.19,616.85,40.78,0000 0000 0000 0000 000000
2016-03-14 10:00:50,0.07,6.14,0.00,15.66,19.69,24.14,15.06,50.08,1025.89,2059.60,1765.57,1932.93,2199.17,599.23,616.07,40.83,0000 0000 0000 0000 000000
2016-03-14 10:05:51,0.05,6.15,0.00,15.64,19.70,24.15,15.11,49.98,1025.88,2059.57,1764.95,1932.15,2198.59,600.02,616.74,40.88,0000 0000 0000 0000 000000
2016-03-14 10:10:53,0.06,6.15,0.00,15.63,19.71,24.15,15.14,49.91,1025.88,2059.32,1764.12,1931.79,2197.92,600.24,617.03,40.93,0000 0000 0000 0000 000000
2016-03-14 10:15:54,0.08,6.16,0.00,15.62,19.72,24.13,15.11,49.96,1025.89,2059.17,1763.19,1931.04,2197.09,599.90,616.60,40.98,0000 0000 0000 0000 000000
2016-03-14 10:20:55,0.10,6.16,0.00,15.62,19.72,24.17,15.14,50.06,1025.88,2059.09,1762.44,1930.45,2196.48,599.84,616.63,41.03,0000 0000 0000 0000 000000
2016-03-14 10:25:56,0.08,6.16,0.00,15.61,19.72,24.14,15.13,50.15,1025.87,2059.08,1761.47,1929.81,2195.67,599.63,616.48,41.08,0000 0000 0000 0000 000000
2016-03-14 10:30:57,0.10,6.17,0.00,15.59,19.72,24.14,15.09,50.07,1025.87,2059.08,1760.49,1929.04,2194.87,599.86,616.74,41.13,0000 0000 0000 0000 000000
2016-03-14 10:35:59,0.12,6.17,0.00,15.59,19.72,24.13,15.23,50.08,1025.83,2059.10,1759.59,1928.31,2193.98,600.16,617.04,41.18,0000 0000 0000 0000 000000
2016-03-14 10:41:00,0.12,6.18,0.00,15.57,19.72,24.14,15.09,49.99,1025.77,2059.06,1758.40,1927.61,2193.08,599.77,616.68,41.23,0000 0000 0000 0000 000000
2016-03-14 10:46:01,0.08,6.19,0.00,15.57,19.72,24.13,15.14,50.00,1025.73,2059.05,1757.62,1926.96,2192.28,600.34,617.08,41.29,0000 0000 0000 0000 000000
2016-03-14 10:51:02,0.13,6.19,0.00,15.55,19.72,24.12,15.16,49.97,1025.66,2059.04,1756.47,1926.12,2191.48,599.96,616.80,41.34,0000 0000 0000 0000 000000
2016-03-14 10:56:03,0.13,6.20,0.00,15.53,19.71,24.11,15.15,50.07,1025.63,2059.11,1755.37,1925.39,2190.54,600.04,616.90,41.39,0000 0000 0000 0000 000000
2016-03-14 11:01:04,0.13,6.21,0.00,15.53,19.70,24.12,15.19,50.04,1025.61,2059.04,1754.00,1924.37,2189.44,599.82,616.78,41.44,0000 0000 0000 0000 000000
2016-03-14 11:06:06,0.12,6.21,0.00,15.52,19.69,24.09,15.14,50.11,1025.62,2059.10,1752.88,1923.66,2188.55,600.16,617.15,41.49,0000 0000 0000 0000 000000
2016-03-14 11:11:07,0.11,6.22,0.00,15.50,19.69,24.07,15.07,50.04,1025.76,2059.14,1751.79,1922.86,2187.56,599.56,616.51,41.54,0000 0000 0000 0000 000000
2016-03-14 11:16:08,0.17,6.23,0.00,15.51,19.69,24.05,15.13,49.98,1025.81,2059.13,1750.28,1921.86,2186.51,600.07,617.26,41.59,0000 0000 0000 0000 000000
2016-03-14 11:21:09,0.12,6.23,0.00,15.49,19.69,24.09,15.13,50.03,1025.74,2059.09,1748.88,1920.97,2185.36,599.81,616.68,41.64,0000 0000 0000 0000 000000
2016-03-14 11:26:10,0.15,6.24,0.00,15.46,19.68,24.05,15.21,50.13,1025.64,2059.19,1747.72,1920.12,2184.47,599.84,616.82,41.69,0000 0000 0000 0000 000000
2016-03-14 11:31:11,0.13,6.25,0.00,15.44,19.67,24.08,15.14,50.02,1025.62,2059.21,1746.63,1919.43,2183.61,599.75,616.89,41.74,0000 0000 0000 0000 000000
2016-03-14 11:36:12,0.14,6.25,0.00,15.43,19.67,23.99,15.14,50.07,1025.47,2059.26,1745.43,1918.61,2182.57,599.95,616.98,41.79,0000 0000 0000 0000 000000
2016-03-14 11:41:14,0.11,6.26,0.00,15.43,19.65,23.97,15.18,50.02,1025.42,2059.17,1744.18,1917.76,2181.55,600.02,617.03,41.84,0000 0000 0000 0000 000000
2016-03-14 11:46:15,0.13,6.27,0.00,15.41,19.64,23.94,15.10,49.96,1025.41,2059.24,1742.95,1916.98,2180.66,599.91,616.90,41.89,0000 0000 0000 0000 000000
2016-03-14 11:51:16,0.15,6.27,0.00,15.39,19.63,23.96,15.19,50.07,1025.41,2059.38,1741.79,1916.10,2179.67,600.18,617.23,41.94,0000 0000 0000 0000 000000
2016-03-14 11:56:17,0.14,6.28,0.00,15.39,19.62,23.94,15.15,49.90,1025.41,2059.46,1740.66,1915.38,2178.83,600.03,617.07,41.99,0000 0000 0000 0000 000000
2016-03-14 12:01:19,0.14,6.29,0.00,15.37,19.59,23.91,15.14,50.05,1025.39,2059.63,1739.60,1914.69,2177.99,600.04,616.97,42.04,0000 0000 0000 0000 000000
2016-03-14 12:06:20,0.11,6.30,0.00,15.36,19.57,23.91,15.17,49.93,1025.34,2059.76,1738.38,1913.90,2177.03,600.12,617.24,42.09,0000 0000 0000 0000 000000
2016-03-14 12:11:21,0.19,6.31,0.00,15.34,19.55,23.89,15.09,49.91,1025.15,2059.90,1736.92,1912.85,2175.85,599.55,616.55,42.14,0000 0000 0000 0000 000000
2016-03-14 12:16:23,0.28,6.32,0.00,15.33,19.53,23.87,15.06,49.80,1025.12,2059.97,1734.67,1911.22,2174.06,599.82,616.81,42.19,0000 0000 0000 0000 000000
2016-03-14 12:21:24,0.30,6.33,0.00,15.30,19.51,23.89,15.02,49.78,1025.11,2059.97,1731.97,1909.23,2171.94,599.80,616.89,42.25,0000 0000 0000 0000 000000
2016-03-14 12:26:25,0.26,6.35,0.00,15.28,19.49,23.85,15.09,49.89,1025.09,2059.98,1729.55,1907.55,2170.03,600.08,617.20,42.30,0000 0000 0000 0000 000000
2016-03-14 12:31:26,0.21,6.36,0.00,15.26,19.47,23.81,15.17,49.87,1025.23,2059.99,1727.61,1906.01,2168.41,600.09,617.25,42.35,0000 0000 0000 0000 000000
2016-03-14 12:36:28,0.23,6.37,0.00,15.25,19.44,23.81,15.18,49.78,1025.12,2059.99,1725.74,1904.62,2166.69,600.25,617.34,42.40,0000 0000 0000 0000 000000
2016-03-14 12:41:29,0.27,6.38,0.00,15.23,19.42,23.80,15.11,49.73,1025.12,2059.99,1723.44,1902.92,2164.86,599.95,617.02,42.45,0000 0000 0000 0000 000000
2016-03-14 12:46:31,0.23,6.40,0.00,15.20,19.39,23.75,15.04,49.77,1025.03,2060.00,1721.27,1901.38,2163.16,599.91,617.11,42.50,0000 0000 0000 0000 000000
2016-03-14 12:51:32,0.21,6.41,0.00,15.17,19.38,23.75,15.22,49.83,1024.94,2060.00,1719.31,1899.95,2161.56,600.07,617.30,42.55,0000 0000 0000 0000 000000
2016-03-14 12:56:33,0.20,6.42,0.00,15.16,19.35,23.70,15.16,49.83,1024.92,2060.03,1717.65,1898.72,2160.25,599.99,617.23,42.60,0000 0000 0000 0000 000000